Simultaneous Nadir Overpasses (SNOs) Predictions

Prediction of SNOs between AQUA and METOP-C Satellite Orbit:

Table of predicted SNOs for the next 14.0 days since TLE Epoch: 2/11/2023
Index Date (AQUA) Time (AQUA) Lat,Lon (AQUA) SZA (AQUA ) Date (METOP-C) Time (METOP-C) Lat,Lon (METOP-C) SZA (METOP-C ) Distance(km) Time Diff (sec)
1 02/13/2023 11:17:59 74.21, 5.93 87.64 02/13/2023 11:17:03 74.19, 5.91 87.62 2.98 56
2 02/13/2023 12:07:24 -74.25, 173.49 92.34 02/13/2023 12:07:44 -74.27, 173.43 92.32 2.31 20
3 02/13/2023 12:57:04 74.94, -20.59 88.41 02/13/2023 12:58:09 74.95, -17.41 88.29 91.88 65
4 02/16/2023 06:01:10 -74.24, -94.91 93.29 02/16/2023 06:00:45 -74.24, -94.90 93.29 0.65 25
5 02/16/2023 06:50:37 74.27, 72.66 86.74 02/16/2023 06:51:23 74.28, 72.54 86.74 3.66 46
6 02/18/2023 23:54:54 -74.19, -3.21 94.31 02/18/2023 23:53:47 -74.19, -3.28 94.29 2.21 67
7 02/19/2023 00:44:22 74.28, 164.23 85.78 02/19/2023 00:44:24 74.27, 164.27 85.77 1.58 2
8 02/19/2023 01:33:51 -74.52, -28.70 93.98 02/19/2023 01:35:02 -74.51, -27.79 94.03 27.06 71
9 02/21/2023 18:38:04 74.25,-104.10 84.76 02/21/2023 18:37:25 74.25,-104.03 84.77 2.07 39
10 02/21/2023 19:27:29 -74.28, 63.47 95.22 02/21/2023 19:28:07 -74.30, 63.41 95.21 2.30 38
11 02/24/2023 12:31:41 74.08, -12.10 83.57 02/24/2023 12:30:29 74.06, -12.75 83.59 20.02 72
12 02/24/2023 13:21:09 -74.27, 155.11 96.25 02/24/2023 13:21:08 -74.26, 155.07 96.25 1.19 1



Historial Predications of SNOs between AQUA and METOP-C
